Regional Weather Roundup
Issued by NWS

Home | Current Version | Previous Version | Graphics & Text | Print | Product List | Glossary Off
Versions: 1 2 3 4 5 6 7 8 9 10 11 12 13 14 15 16 17 18 19 20 21 22 23 24 25 26 27 28 29 30 31 32 33 34 35 36 37 38 39 40 41 42 43 44 45 46 47 48 49 50

000
ASUS43 KMKX 250411
RWRWI

WISCONSIN REGIONAL WEATHER ROUNDUP
NATIONAL WEATHER SERVICE MILWAUKEE/SULLIVAN WI
1100 PM CDT FRI APR 24 2015

NOTE: "FAIR" INDICATES FEW OR NO CLOUDS BELOW 12,000 FEET WITH NO
SIGNIFICANT WEATHER AND/OR OBSTRUCTIONS TO VISIBILITY.

WIZ001-002-006>008-014>016-023>028-250500-
NORTHWEST WISCONSIN

CITY           SKY/WX    TMP DP  RH WIND       PRES   REMARKS
SUPERIOR ARPT  CLOUDY    35  31  86 NE13G22   29.95F WCI  26
ASHLAND        CLOUDY    36  32  85 NE6       29.96S WCI  31
HAYWARD        CLOUDY    41  32  70 E7        29.90S
SIREN          CLOUDY    45  29  55 E8        29.87F
CUMBERLAND     CLOUDY    45  30  57 SE10      29.87S
RICE LAKE      CLOUDY    46  30  52 SE10      29.89S
CHETEK         CLOUDY    46  32  58 E10G17    29.89S
LADYSMITH      CLOUDY    46  27  47 E8        29.91S
EAU CLAIRE     CLOUDY    44  35  70 SE12      29.89S
MENOMONIE      CLOUDY    44  36  71 E10G16    29.88S
NEW RICHMOND   CLOUDY    45  36  70 E12G18    29.85S
OSCEOLA        CLOUDY    47  37  68 SE13      29.88R
$$

WIZ003>005-009-010-017-018-250500-
NORTH CENTRAL WISCONSIN

CITY           SKY/WX    TMP DP  RH WIND       PRES   REMARKS
MANITOWISH WTR CLOUDY    42  29  62 SE6       29.94R
ARBOR VITAE    CLOUDY    42  30  64 SE10      29.94S
WOODRUFF       CLOUDY    42  30  64 SE10      29.94S
RHINELANDER    CLOUDY    40  29  64 SE6       29.96S
EAGLE RIVER    CLOUDY    40  29  65 S5        29.95S
LAND O LAKES   CLOUDY    40  29  65 CALM      29.96S
PHILLIPS       CLOUDY    43  29  57 SE12      29.92R
TOMAHAWK       CLOUDY    40  29  64 CALM      29.95S
MEDFORD        DRIZZLE   39  33  79 SE8       29.93S WCI  34
MERRILL        CLOUDY    41  32  70 SE3       29.95S
$$

WIZ029-030-035-036-043>047-250500-
CENTRAL WISCONSIN

CITY           SKY/WX    TMP DP  RH WIND       PRES   REMARKS
WAUSAU         CLOUDY    41  32  70 SE9       29.94F
MOSINEE        CLOUDY    41  32  70 E7        29.96S
MARSHFIELD     LGT RAIN  40  33  76 SE12      29.93S WCI  33
STEVENS POINT  CLOUDY    39  28  66 E8        29.97S WCI  33
WAUPACA        DRIZZLE   41  33  73 E8        29.99S
WAUTOMA        CLOUDY    38  37  96 E8        29.98F WCI  32
WISC RAPIDS    LGT RAIN  41  36  82 SE9       29.96R
CAMP DOUGLAS   CLOUDY    41  41 100 E13       29.92S
$$

WIZ011>013-019>022-031-037>040-048>050-250500-
NORTHEAST WISCONSIN

CITY           SKY/WX    TMP DP  RH WIND       PRES   REMARKS
ANTIGO         CLOUDY    37  29  73 E10       29.96S WCI  29
SHAWANO        CLOUDY    42  22  46 E3        30.00S
OCONTO         CLOUDY    39  21  50 CALM      30.01S
STURGEON BAY   CLOUDY    39  19  45 E7        30.02R WCI  34
GREEN BAY      CLOUDY    41  25  53 S3        30.01R
MANITOWOC      CLOUDY    39  28  64 CALM      30.01S
APPLETON       CLOUDY    39  28  65 SE8       30.01R WCI  34
CLINTONVILLE   CLOUDY    41  23  48 SE8       30.00R
OSHKOSH        CLOUDY    38  33  82 E7        29.98S WCI  33
$$

WIZ032>034-041-042-053>061-250500-
SOUTHWEST WISCONSIN

CITY           SKY/WX    TMP DP  RH WIND       PRES   REMARKS
LA CROSSE      LGT RAIN  44  39  82 VRB6      29.87F
SPARTA         CLOUDY    42  37  84 E17G24    29.91S
VIROQUA        CLOUDY    40  39  94 E15       29.87R WCI  32
BOSCOBEL       CLOUDY    44  38  79 E6        29.89R
PRAIRIE DU CHI CLOUDY    44  37  74 E12       29.85R
PLATTEVILLE    CLOUDY    43  38  84 E16G24    29.85S
$$

WIZ056-057-062-063-064-067-068-250500-
SOUTH CENTRAL WISCONSIN

CITY           SKY/WX    TMP DP  RH WIND       PRES   REMARKS
REEDSBURG      CLOUDY    40  34  81 E8        29.92R WCI  34
BARABOO/DELLS  CLOUDY    39  33  80 E12       29.92S WCI  31
LONE ROCK      CLOUDY    42  35  76 E15       29.91R
MINERAL POINT  CLOUDY    41  37  87 E12G20    29.87S
MADISON        CLOUDY    40  34  79 E13       29.93R WCI  32
MIDDLETON      CLOUDY    41  35  79 E8        29.93R
WATERTOWN      CLOUDY    38  36  91 E9        29.94R WCI  32
MONROE         CLOUDY    39  36  87 NE13      29.89R WCI  32
JANESVILLE     CLOUDY    41  34  75 E7        29.92S
$$

WIZ051-052-058>065-066-070>072-250500-
SOUTHEAST WISCONSIN

CITY           SKY/WX    TMP DP  RH WIND       PRES   REMARKS
MILWAUKEE      CLOUDY    38  33  82 NE8       29.97R WCI  32
WAUKESHA       CLOUDY    36  32  87 E8        29.97R WCI  29
MILWAUKEE/TIMM CLOUDY    37  32  81 NE7       29.97R WCI  32
RACINE         CLOUDY    40  32  73 E12       29.98R WCI  33
BURLINGTON     CLOUDY    38  32  78 E8        29.94S WCI  32
KENOSHA        CLOUDY    40  34  79 E13       29.96R WCI  32
FOND DU LAC    LGT RAIN  38  33  82 E9        29.98F WCI  31
SHEBOYGAN      CLOUDY    37  31  78 CALM      30.00S
WEST BEND      CLOUDY    36  32  87 E7G18     29.97S WCI  30
JUNEAU         CLOUDY    37  33  84 NE14      29.95F WCI  29
$$

LSZ147-162-250500-
LAKE SUPERIOR

STATION/POSITION TIME  TEMP    WIND        PRES    WAVE
                       AIR SEA DIR/SP/G            HT/PER
                 (UTC) (F)     (DEG/KT/KT) (MB)    (FT/S)
W MID LAKE BUOY  0350   35 34   80/ 14/ 16 1017.8F   3/ 5
DEVILS ISLAND    0400   36      70/ 18/ 19 1015.8F
PORT WING        0340   38      40/  9/ 13 1014.6S
SAXON HARBOR     0300   38        CALM     1014.2S
$$

LMZ867-665-643>646-250500-
LAKE MICHIGAN

STATION/POSITION TIME  TEMP    WIND        PRES    WAVE
                       AIR SEA DIR/SP/G            HT/PER
                 (UTC) (F)     (DEG/KT/KT) (MB)    (FT/S)
CHAMBERS ISLAND  0300   39      80/  4/  6 1016.6R
NORTHPORT PIER   0300   37      90/  7/  8 1016.9R
SISTER BAY       0347   39     100/  9/ 12   N/A
KEWAUNEE LAKESHO 0300   39      20/  5/  9 1015.0S
SHEBOYGAN LAKESH 0400   38      40/  4/  5 1016.8F
PORT WASHINGTON  0300   39      50/  8/ 10 1016.3
MILWAUKEE LAKESH 0300   38      30/ 16/ 18   N/A
KENOSHA   LAKESH 0400   40      70/ 13/ 16 1014.6R
$$

TC  - TEMPERATURE IN CELSIUS
VSB - VISIBILITY IN STATUTE MILES
WCI - WIND CHILL INDEX
HX  - HEAT INDEX



USA.gov is the U.S. government's official web portal to all federal, state and local government web resources and services.